Location: Waco, TX
(31.5480°N, 97.1670°W)
Time: 00:39:26
(UTC-06:00)

ISS - Pass Details

Date: 13 December 2017
Orbit: 403 x 407 km, 51.6° (Epoch: 12 December)

Event Time Altitude Azimuth Distance (km) Brightness Sun altitude
Rises 10:41:52 0° 189° (S) 2,307 0.8 30.1°
Reaches altitude 10° 10:44:31 10° 165° (SSE) 1,453 0.5 30.4°
Maximum altitude 10:46:33 16° 127° (SE) 1,170 -0.2 30.6°
Drops below altitude 10° 10:48:35 10° 88° (E) 1,459 -0.6 30.8°
Sets 10:51:15 0° 65° (ENE) 2,323 0.0 31.0°
